| time (UTC) | temp F | wind direction | speed MPH | gust MPH | rain 1hr in | rain 24hr in | rain mn in | humidity % | barometer mb |
| 20260903202618 | 83 | 0 | 5.0 | 7.0 | 0.00 | 0.00 | 0.00 | 51 | 992.7 |
| 20260903202119 | 83 | 0 | 4.0 | 5.0 | 0.00 | 0.00 | 0.00 | 50 | 992.7 |
| 20260903201619 | 84 | 0 | 3.0 | 4.0 | 0.00 | 0.00 | 0.00 | 50 | 992.8 |
| 20260903201118 | 84 | 0 | 4.0 | 5.0 | 0.00 | 0.00 | 0.00 | 49 | 992.8 |
| 20260903200618 | 84 | 0 | 4.0 | 4.0 | 0.00 | 0.00 | 0.00 | 49 | 992.6 |
| 20260903200118 | 85 | 0 | 3.0 | 4.0 | 0.00 | 0.00 | 0.00 | 48 | 992.7 |
| 20260903195621 | 85 | 0 | 3.0 | 4.0 | 0.00 | 0.00 | 0.00 | 49 | 992.8 |
| 20260903195121 | 84 | 0 | 3.0 | 4.0 | 0.00 | 0.00 | 0.00 | 49 | 993.0 |
| 20260903194618 | 84 | 0 | 3.0 | 4.0 | 0.00 | 0.00 | 0.00 | 49 | 993.1 |
| 20260903194120 | 84 | 0 | 2.0 | 3.0 | 0.00 | 0.00 | 0.00 | 50 | 993.2 |
| 20260903193619 | 84 | 0 | 2.0 | 3.0 | 0.00 | 0.00 | 0.00 | 51 | 993.2 |
| 20260903193159 | 83 | 0 | 3.0 | 4.0 | 0.00 | 0.00 | 0.00 | 51 | 993.3 |
| 20260903192618 | 83 | 0 | 5.0 | 7.0 | 0.00 | 0.00 | 0.00 | 52 | 993.7 |
| 20260903192121 | 83 | 0 | 5.0 | 7.0 | 0.00 | 0.00 | 0.00 | 52 | 993.9 |
| 20260903191620 | 83 | 0 | 3.0 | 4.0 | 0.00 | 0.00 | 0.00 | 53 | 993.9 |
| 20260903191121 | 83 | 0 | 2.0 | 3.0 | 0.00 | 0.00 | 0.00 | 53 | 994.2 |
| 20260903190659 | 83 | 0 | 3.0 | 4.0 | 0.00 | 0.00 | 0.00 | 53 | 994.1 |
| 20260903190118 | 83 | 0 | 4.0 | 5.0 | 0.00 | 0.00 | 0.00 | 53 | 994.4 |
| 20260903185621 | 83 | 0 | 5.0 | 7.0 | 0.00 | 0.00 | 0.00 | 54 | 994.5 |
| 20260903185141 | 84 | 0 | 6.0 | 8.0 | 0.00 | 0.00 | 0.00 | 54 | 994.4 |
| 20260903184701 | 84 | 0 | 4.0 | 5.0 | 0.00 | 0.00 | 0.00 | 55 | 994.5 |
| 20260903184119 | 84 | 0 | 7.0 | 8.0 | 0.00 | 0.00 | 0.00 | 55 | 994.4 |
| 20260903183641 | 84 | 0 | 6.0 | 8.0 | 0.00 | 0.00 | 0.00 | 54 | 994.4 |
| 20260903183118 | 85 | 0 | 4.0 | 5.0 | 0.00 | 0.00 | 0.00 | 54 | 994.4 |
| 20260903182621 | 85 | 0 | 3.0 | 4.0 | 0.00 | 0.00 | 0.00 | 54 | 994.3 |
| 20260903182141 | 85 | 0 | 4.0 | 5.0 | 0.00 | 0.00 | 0.00 | 55 | 994.5 |
| 20260903181618 | 85 | 0 | 5.0 | 6.0 | 0.00 | 0.00 | 0.00 | 55 | 994.3 |
| 20260903181122 | 86 | 0 | 5.0 | 6.0 | 0.00 | 0.00 | 0.00 | 55 | 994.3 |
| 20260903180618 | 86 | 0 | 5.0 | 6.0 | 0.00 | 0.00 | 0.00 | 55 | 994.3 |
| 20260903180141 | 86 | 0 | 3.0 | 4.0 | 0.00 | 0.00 | 0.00 | 55 | 994.3 |
| 20260903175621 | 87 | 0 | 5.0 | 6.0 | 0.00 | 0.00 | 0.00 | 55 | 994.3 |
| 20260903175118 | 87 | 0 | 9.0 | 10.0 | 0.00 | 0.00 | 0.00 | 54 | 994.4 |
| 20260903174620 | 88 | 0 | 3.0 | 4.0 | 0.00 | 0.00 | 0.00 | 54 | 994.5 |
| 20260903174121 | 88 | 23 | 3.0 | 4.0 | 0.00 | 0.00 | 0.00 | 53 | 994.6 |
| 20260903173641 | 88 | 23 | 2.0 | 3.0 | 0.00 | 0.00 | 0.00 | 53 | 994.6 |
| 20260903173120 | 89 | 23 | 2.0 | 3.0 | 0.00 | 0.00 | 0.00 | 53 | 994.6 |
| 20260903172621 | 89 | 45 | 1.0 | 2.0 | 0.00 | 0.00 | 0.00 | 53 | 994.7 |
| 20260903172119 | 88 | 23 | 1.0 | 2.0 | 0.00 | 0.00 | 0.00 | 52 | 994.8 |
| 20260903171620 | 88 | 23 | 2.0 | 3.0 | 0.00 | 0.00 | 0.00 | 54 | 994.9 |
| 20260903171118 | 88 | 23 | 3.0 | 3.0 | 0.00 | 0.00 | 0.00 | 53 | 995.0 |
| 20260903170620 | 88 | 23 | 3.0 | 3.0 | 0.00 | 0.00 | 0.00 | 53 | 995.0 |
| 20260903170118 | 87 | 23 | 3.0 | 4.0 | 0.00 | 0.00 | 0.00 | 52 | 995.2 |
| 20260903165620 | 88 | 315 | 2.0 | 3.0 | 0.00 | 0.00 | 0.00 | 52 | 995.2 |
| 20260903165118 | 88 | 270 | 2.0 | 2.0 | 0.00 | 0.00 | 0.00 | 51 | 995.2 |
| 20260903164620 | 88 | 0 | 1.0 | 2.0 | 0.00 | 0.00 | 0.00 | 51 | 995.2 |
| 20260903164122 | 88 | 0 | 1.0 | 2.0 | 0.00 | 0.00 | 0.00 | 52 | 995.3 |
| 20260903163619 | 88 | 0 | 2.0 | 2.0 | 0.00 | 0.00 | 0.00 | 51 | 995.4 |
| 20260903163120 | 89 | 0 | 3.0 | 3.0 | 0.00 | 0.00 | 0.00 | 50 | 995.4 |
| 20260903162620 | 90 | 248 | 1.0 | 2.0 | 0.00 | 0.00 | 0.00 | 50 | 995.5 |
| 20260903162121 | 91 | 225 | 2.0 | 3.0 | 0.00 | 0.00 | 0.00 | 48 | 995.6 |
| 20260903161640 | 91 | 225 | 1.0 | 2.0 | 0.00 | 0.00 | 0.00 | 48 | 995.6 |
| 20260903161118 | 91 | 225 | 1.0 | 2.0 | 0.00 | 0.00 | 0.00 | 48 | 995.7 |
| 20260903160639 | 91 | 225 | 1.0 | 2.0 | 0.00 | 0.00 | 0.00 | 49 | 995.7 |
| 20260903160118 | 91 | 225 | 1.0 | 2.0 | 0.00 | 0.00 | 0.00 | 48 | 995.7 |
| 20260903155701 | 91 | 225 | 1.0 | 2.0 | 0.00 | 0.00 | 0.00 | 48 | 995.6 |
| 20260903155121 | 91 | 225 | 1.0 | 2.0 | 0.00 | 0.00 | 0.00 | 49 | 995.6 |
| 20260903154620 | 90 | 225 | 3.0 | 4.0 | 0.00 | 0.00 | 0.00 | 50 | 995.5 |
| 20260903154201 | 90 | 225 | 3.0 | 4.0 | 0.00 | 0.00 | 0.00 | 49 | 995.4 |
| 20260903153620 | 90 | 225 | 2.0 | 3.0 | 0.00 | 0.00 | 0.00 | 49 | 995.3 |
| 20260903153120 | 90 | 0.0 | 0.0 | 0.00 | 0.00 | 0.00 | 49 | 995.4 | |
| 20260903152620 | 90 | 0.0 | 0.0 | 0.00 | 0.00 | 0.00 | 49 | 995.3 | |
| 20260903152118 | 90 | 0.0 | 0.0 | 0.00 | 0.00 | 0.00 | 48 | 995.5 | |
| 20260903151620 | 89 | 0.0 | 0.0 | 0.00 | 0.00 | 0.00 | 49 | 995.5 | |
| 20260903151117 | 89 | 0.0 | 0.0 | 0.00 | 0.00 | 0.00 | 49 | 995.4 | |
| 20260903150618 | 89 | 0.0 | 0.0 | 0.00 | 0.00 | 0.00 | 49 | 995.5 | |
| 20260903150120 | 88 | 0.0 | 0.0 | 0.00 | 0.00 | 0.00 | 50 | 995.5 | |
| 20260903145620 | 88 | 0.0 | 0.0 | 0.00 | 0.00 | 0.00 | 49 | 995.4 | |
| 20260903145118 | 88 | 0.0 | 0.0 | 0.00 | 0.00 | 0.00 | 50 | 995.5 | |
| 20260903144618 | 88 | 0.0 | 0.0 | 0.00 | 0.00 | 0.00 | 50 | 995.5 | |
| 20260903144117 | 88 | 0.0 | 0.0 | 0.00 | 0.00 | 0.00 | 49 | 995.5 | |
| 20260903143638 | 87 | 0.0 | 0.0 | 0.00 | 0.00 | 0.00 | 49 | 995.5 | |
| 20260903143119 | 87 | 0.0 | 0.0 | 0.00 | 0.00 | 0.00 | 49 | 995.5 | |
| 20260903142617 | 86 | 0.0 | 0.0 | 0.00 | 0.00 | 0.00 | 49 | 995.5 | |
| 20260903142118 | 86 | 248 | 1.0 | 1.0 | 0.00 | 0.00 | 0.00 | 49 | 995.6 |
| 20260903141617 | 86 | 248 | 1.0 | 2.0 | 0.00 | 0.00 | 0.00 | 49 | 995.6 |
| 20260903141138 | 85 | 248 | 2.0 | 3.0 | 0.00 | 0.00 | 0.00 | 49 | 995.6 |
| 20260903140638 | 85 | 248 | 2.0 | 3.0 | 0.00 | 0.00 | 0.00 | 50 | 995.7 |
| 20260903140119 | 85 | 248 | 2.0 | 4.0 | 0.00 | 0.00 | 0.00 | 49 | 995.8 |
| 20260903135619 | 85 | 248 | 2.0 | 4.0 | 0.00 | 0.00 | 0.00 | 49 | 995.7 |
| 20260903135117 | 85 | 225 | 2.0 | 3.0 | 0.00 | 0.00 | 0.00 | 48 | 995.8 |
| 20260903134620 | 85 | 225 | 2.0 | 3.0 | 0.00 | 0.00 | 0.00 | 48 | 995.7 |
| 20260903134120 | 85 | 225 | 2.0 | 3.0 | 0.00 | 0.00 | 0.00 | 48 | 995.5 |
| 20260903133637 | 85 | 225 | 2.0 | 3.0 | 0.00 | 0.00 | 0.00 | 48 | 995.7 |
| 20260903133141 | 84 | 225 | 1.0 | 2.0 | 0.00 | 0.00 | 0.00 | 48 | 995.6 |
| 20260903132620 | 84 | 225 | 2.0 | 3.0 | 0.00 | 0.00 | 0.00 | 47 | 995.6 |
| 20260903132118 | 84 | 225 | 1.0 | 2.0 | 0.00 | 0.00 | 0.00 | 46 | 995.6 |
| 20260903131620 | 83 | 225 | 1.0 | 2.0 | 0.00 | 0.00 | 0.00 | 46 | 995.7 |
| 20260903131120 | 83 | 0.0 | 0.0 | 0.00 | 0.00 | 0.00 | 45 | 995.8 | |
| 20260903130619 | 82 | 0.0 | 0.0 | 0.00 | 0.00 | 0.00 | 45 | 995.9 | |
| 20260903130119 | 81 | 0.0 | 0.0 | 0.00 | 0.00 | 0.00 | 44 | 995.9 | |
| 20260903125620 | 80 | 225 | 3.0 | 4.0 | 0.00 | 0.00 | 0.00 | 45 | 995.8 |
| 20260903125120 | 80 | 248 | 3.0 | 4.0 | 0.00 | 0.00 | 0.00 | 46 | 995.8 |
| 20260903124657 | 79 | 225 | 3.0 | 5.0 | 0.00 | 0.00 | 0.00 | 46 | 995.9 |
| 20260903124120 | 79 | 0 | 5.0 | 6.0 | 0.00 | 0.00 | 0.00 | 47 | 995.9 |
| 20260903123619 | 79 | 225 | 3.0 | 4.0 | 0.00 | 0.00 | 0.00 | 47 | 996.0 |
| 20260903123117 | 78 | 0 | 5.0 | 6.0 | 0.00 | 0.00 | 0.00 | 47 | 996.0 |
| 20260903122617 | 78 | 0 | 5.0 | 6.0 | 0.00 | 0.00 | 0.00 | 48 | 996.0 |
| 20260903122117 | 78 | 0 | 4.0 | 5.0 | 0.00 | 0.00 | 0.00 | 48 | 996.0 |
| 20260903121619 | 78 | 0.0 | 0.0 | 0.00 | 0.00 | 0.00 | 48 | 996.0 | |
| 20260903121118 | 78 | 0.0 | 1.0 | 0.00 | 0.00 | 0.00 | 48 | 995.9 | |
| 20260903120637 | 78 | 180 | 1.0 | 2.0 | 0.00 | 0.00 | 0.00 | 48 | 995.9 |
| 20260903120138 | 77 | 0.0 | 1.0 | 0.00 | 0.00 | 0.00 | 48 | 995.9 | |
| 20260903115638 | 77 | 0.0 | 2.0 | 0.00 | 0.00 | 0.00 | 48 | 995.9 | |
| 20260903115118 | 77 | 0 | 1.0 | 2.0 | 0.00 | 0.00 | 0.00 | 48 | 995.9 |
| 20260903114637 | 77 | 180 | 2.0 | 4.0 | 0.00 | 0.00 | 0.00 | 48 | 995.9 |
| 20260903114117 | 77 | 180 | 1.0 | 4.0 | 0.00 | 0.00 | 0.00 | 49 | 995.8 |
| 20260903113617 | 77 | 158 | 2.0 | 3.0 | 0.00 | 0.00 | 0.00 | 49 | 995.8 |
| 20260903113138 | 77 | 0.0 | 1.0 | 0.00 | 0.00 | 0.00 | 49 | 995.8 | |
| 20260903112617 | 77 | 0.0 | 0.0 | 0.00 | 0.00 | 0.00 | 49 | 995.7 | |
| 20260903112118 | 77 | 0.0 | 0.0 | 0.00 | 0.00 | 0.00 | 49 | 995.7 | |
| 20260903111637 | 77 | 0.0 | 1.0 | 0.00 | 0.00 | 0.00 | 49 | 995.7 | |
| 20260903111117 | 77 | 0.0 | 0.0 | 0.00 | 0.00 | 0.00 | 49 | 995.7 | |
| 20260903110618 | 77 | 0.0 | 0.0 | 0.00 | 0.00 | 0.00 | 49 | 995.7 | |
| 20260903110118 | 77 | 158 | 1.0 | 2.0 | 0.00 | 0.00 | 0.00 | 49 | 995.7 |
| 20260903105639 | 77 | 158 | 1.0 | 3.0 | 0.00 | 0.00 | 0.00 | 49 | 995.6 |
| 20260903105117 | 77 | 0.0 | 0.0 | 0.00 | 0.00 | 0.00 | 49 | 995.5 | |
| 20260903104617 | 77 | 0.0 | 0.0 | 0.00 | 0.00 | 0.00 | 49 | 995.6 | |
| 20260903104117 | 77 | 135 | 2.0 | 4.0 | 0.00 | 0.00 | 0.00 | 49 | 995.6 |
| 20260903103617 | 78 | 0 | 7.0 | 8.0 | 0.00 | 0.00 | 0.00 | 49 | 995.7 |
| 20260903103118 | 77 | 68 | 3.0 | 5.0 | 0.00 | 0.00 | 0.00 | 49 | 995.7 |
| 20260903102617 | 77 | 0.0 | 0.0 | 0.00 | 0.00 | 0.00 | 49 | 995.5 | |
| 20260903102119 | 77 | 0.0 | 0.0 | 0.00 | 0.00 | 0.00 | 49 | 995.3 | |
| 20260903101620 | 77 | 0.0 | 0.0 | 0.00 | 0.00 | 0.00 | 49 | 995.2 | |
| 20260903101138 | 77 | 0.0 | 0.0 | 0.00 | 0.00 | 0.00 | 49 | 995.2 | |
| 20260903100619 | 77 | 0.0 | 0.0 | 0.00 | 0.00 | 0.00 | 50 | 995.2 | |
| 20260903100119 | 77 | 0.0 | 0.0 | 0.00 | 0.00 | 0.00 | 50 | 995.1 | |
| 20260903095619 | 77 | 0.0 | 0.0 | 0.00 | 0.00 | 0.00 | 50 | 995.1 | |
| 20260903095140 | 77 | 0.0 | 0.0 | 0.00 | 0.00 | 0.00 | 50 | 995.1 | |
| 20260903094620 | 77 | 0.0 | 0.0 | 0.00 | 0.00 | 0.00 | 50 | 995.1 | |
| 20260903094140 | 77 | 0.0 | 0.0 | 0.00 | 0.00 | 0.00 | 50 | 995.0 | |
| 20260903093637 | 77 | 0.0 | 0.0 | 0.00 | 0.00 | 0.00 | 51 | 995.0 | |
| 20260903093120 | 77 | 0.0 | 0.0 | 0.00 | 0.00 | 0.00 | 51 | 995.0 | |
| 20260903092640 | 77 | 0.0 | 0.0 | 0.00 | 0.00 | 0.00 | 51 | 994.9 | |
| 20260903092120 | 77 | 0.0 | 0.0 | 0.00 | 0.00 | 0.00 | 51 | 994.9 | |
| 20260903091640 | 77 | 0.0 | 0.0 | 0.00 | 0.00 | 0.00 | 51 | 994.9 | |
| 20260903091201 | 77 | 0.0 | 1.0 | 0.00 | 0.00 | 0.00 | 52 | 994.9 | |
| 20260903090618 | 77 | 0.0 | 1.0 | 0.00 | 0.00 | 0.00 | 52 | 995.0 | |
| 20260903090117 | 77 | 0 | 1.0 | 2.0 | 0.00 | 0.00 | 0.00 | 53 | 994.9 |
| 20260903085619 | 77 | 0 | 1.0 | 2.0 | 0.00 | 0.00 | 0.00 | 53 | 994.9 |
| 20260903085119 | 77 | 0 | 2.0 | 3.0 | 0.00 | 0.00 | 0.00 | 53 | 994.9 |
| 20260903084620 | 77 | 0 | 3.0 | 4.0 | 0.00 | 0.00 | 0.00 | 53 | 994.7 |
| 20260903084119 | 77 | 0 | 3.0 | 4.0 | 0.00 | 0.00 | 0.00 | 53 | 994.7 |
| 20260903083618 | 77 | 0 | 4.0 | 5.0 | 0.00 | 0.00 | 0.00 | 53 | 994.7 |
| 20260903083137 | 77 | 0 | 3.0 | 5.0 | 0.00 | 0.00 | 0.00 | 53 | 994.6 |
| 20260903082620 | 77 | 0 | 3.0 | 5.0 | 0.00 | 0.00 | 0.00 | 53 | 994.6 |
| 20260903082117 | 77 | 0 | 3.0 | 4.0 | 0.00 | 0.00 | 0.00 | 54 | 994.6 |
| 20260903081617 | 76 | 0 | 3.0 | 4.0 | 0.00 | 0.00 | 0.00 | 54 | 994.6 |
| 20260903081117 | 76 | 0 | 2.0 | 3.0 | 0.00 | 0.00 | 0.00 | 55 | 994.7 |
| 20260903080640 | 76 | 0 | 2.0 | 4.0 | 0.00 | 0.00 | 0.00 | 55 | 994.7 |
| 20260903080117 | 76 | 0.0 | 0.0 | 0.00 | 0.00 | 0.00 | 55 | 994.8 | |
| 20260903075617 | 76 | 0 | 2.0 | 4.0 | 0.00 | 0.00 | 0.00 | 55 | 994.7 |
| 20260903075121 | 76 | 0 | 1.0 | 2.0 | 0.00 | 0.00 | 0.00 | 55 | 994.8 |
| 20260903074619 | 76 | 0 | 2.0 | 5.0 | 0.00 | 0.00 | 0.00 | 55 | 994.9 |
| 20260903074140 | 76 | 0 | 2.0 | 3.0 | 0.00 | 0.00 | 0.00 | 56 | 995.0 |
| 20260903073621 | 76 | 0 | 2.0 | 3.0 | 0.00 | 0.00 | 0.00 | 56 | 995.1 |
| 20260903073117 | 76 | 0 | 1.0 | 2.0 | 0.00 | 0.00 | 0.00 | 56 | 995.1 |
| 20260903072619 | 76 | 0 | 2.0 | 3.0 | 0.00 | 0.00 | 0.00 | 55 | 995.1 |
| 20260903072120 | 76 | 0 | 2.0 | 3.0 | 0.00 | 0.00 | 0.00 | 55 | 995.1 |
| 20260903071619 | 77 | 0 | 3.0 | 5.0 | 0.00 | 0.00 | 0.00 | 55 | 995.0 |
| 20260903071120 | 77 | 0 | 1.0 | 3.0 | 0.00 | 0.00 | 0.00 | 55 | 994.9 |
| 20260903070619 | 77 | 0 | 3.0 | 5.0 | 0.00 | 0.00 | 0.00 | 55 | 994.8 |
| 20260903070116 | 77 | 0 | 1.0 | 2.0 | 0.00 | 0.00 | 0.00 | 55 | 994.8 |
| 20260903065619 | 77 | 0 | 1.0 | 3.0 | 0.00 | 0.00 | 0.00 | 55 | 994.8 |
| 20260903065118 | 77 | 0.0 | 0.0 | 0.00 | 0.00 | 0.00 | 55 | 994.8 | |
| 20260903064619 | 77 | 0.0 | 0.0 | 0.00 | 0.00 | 0.00 | 55 | 994.9 | |
| 20260903064116 | 77 | 0.0 | 0.0 | 0.00 | 0.00 | 0.00 | 55 | 995.1 | |
| 20260903063616 | 77 | 0.0 | 0.0 | 0.00 | 0.00 | 0.00 | 55 | 995.2 | |
| 20260903063118 | 77 | 0.0 | 0.0 | 0.00 | 0.00 | 0.00 | 55 | 995.3 | |
| 20260903062620 | 77 | 0.0 | 0.0 | 0.00 | 0.00 | 0.00 | 55 | 995.3 | |
| 20260903062116 | 77 | 0 | 1.0 | 2.0 | 0.00 | 0.00 | 0.00 | 55 | 995.3 |
| 20260903061616 | 77 | 0 | 3.0 | 4.0 | 0.00 | 0.00 | 0.00 | 55 | 995.5 |
| 20260903061117 | 77 | 0 | 3.0 | 5.0 | 0.00 | 0.00 | 0.00 | 54 | 995.5 |
| 20260903060620 | 77 | 0 | 3.0 | 5.0 | 0.00 | 0.00 | 0.00 | 54 | 995.5 |
| 20260903060119 | 77 | 0 | 4.0 | 5.0 | 0.00 | 0.00 | 0.00 | 54 | 995.6 |
| 20260903055619 | 77 | 0 | 6.0 | 9.0 | 0.00 | 0.00 | 0.00 | 55 | 995.7 |
| 20260903055117 | 78 | 0 | 5.0 | 8.0 | 0.00 | 0.00 | 0.00 | 54 | 995.7 |
| 20260903054617 | 78 | 0 | 6.0 | 10.0 | 0.00 | 0.00 | 0.00 | 54 | 995.8 |
| 20260903054116 | 78 | 0 | 7.0 | 11.0 | 0.00 | 0.00 | 0.00 | 54 | 995.7 |
| 20260903053616 | 79 | 0 | 10.0 | 13.0 | 0.00 | 0.00 | 0.00 | 54 | 995.8 |
| 20260903053117 | 80 | 0 | 13.0 | 22.0 | 0.00 | 0.00 | 0.00 | 53 | 995.7 |
| 20260903052657 | 81 | 0 | 5.0 | 11.0 | 0.00 | 0.00 | 0.00 | 56 | 995.4 |
| 20260903052116 | 81 | 0 | 12.0 | 14.0 | 0.00 | 0.00 | 0.00 | 56 | 995.6 |
| 20260903051617 | 82 | 293 | 1.0 | 4.0 | 0.00 | 0.00 | 0.00 | 56 | 994.8 |
| 20260903051116 | 82 | 0 | 3.0 | 4.0 | 0.00 | 0.00 | 0.00 | 55 | 994.6 |
| 20260903050616 | 82 | 225 | 2.0 | 4.0 | 0.00 | 0.00 | 0.00 | 56 | 994.5 |
| 20260903050117 | 82 | 225 | 2.0 | 3.0 | 0.00 | 0.00 | 0.00 | 55 | 994.4 |
| 20260903045636 | 82 | 0 | 4.0 | 5.0 | 0.00 | 0.00 | 0.00 | 55 | 994.3 |
| 20260903045116 | 82 | 0 | 5.0 | 6.0 | 0.00 | 0.00 | 0.00 | 55 | 994.3 |
| 20260903044617 | 82 | 225 | 4.0 | 6.0 | 0.00 | 0.00 | 0.00 | 55 | 994.3 |
| 20260903044138 | 82 | 248 | 5.0 | 7.0 | 0.00 | 0.00 | 0.00 | 55 | 994.3 |
| 20260903043619 | 82 | 225 | 5.0 | 6.0 | 0.00 | 0.00 | 0.00 | 55 | 994.2 |
| 20260903043119 | 82 | 225 | 4.0 | 5.0 | 0.00 | 0.00 | 0.00 | 55 | 994.2 |
| 20260903042616 | 83 | 0 | 5.0 | 6.0 | 0.00 | 0.00 | 0.00 | 55 | 994.1 |
| 20260903042137 | 83 | 225 | 4.0 | 4.0 | 0.00 | 0.00 | 0.00 | 55 | 994.1 |
| 20260903041619 | 83 | 225 | 4.0 | 5.0 | 0.00 | 0.00 | 0.00 | 55 | 994.0 |
| 20260903041121 | 83 | 0 | 3.0 | 4.0 | 0.00 | 0.00 | 0.00 | 55 | 994.0 |
| 20260903040621 | 83 | 225 | 3.0 | 3.0 | 0.00 | 0.00 | 0.00 | 55 | 993.9 |
| 20260903040118 | 83 | 0.0 | 0.0 | 0.00 | 0.00 | 0.00 | 55 | 993.9 | |
| 20260903035619 | 83 | 225 | 1.0 | 3.0 | 0.00 | 0.00 | 0.00 | 55 | 993.9 |
| 20260903035117 | 82 | 225 | 2.0 | 4.0 | 0.00 | 0.00 | 0.00 | 55 | 993.8 |
| 20260903034618 | 82 | 225 | 5.0 | 8.0 | 0.00 | 0.00 | 0.00 | 55 | 993.7 |
| 20260903034119 | 82 | 225 | 6.0 | 8.0 | 0.00 | 0.00 | 0.00 | 55 | 993.7 |
| 20260903033618 | 82 | 225 | 8.0 | 12.0 | 0.00 | 0.00 | 0.00 | 55 | 993.6 |
| 20260903033120 | 82 | 225 | 12.0 | 14.0 | 0.00 | 0.00 | 0.00 | 55 | 993.4 |
| 20260903032616 | 82 | 225 | 12.0 | 15.0 | 0.00 | 0.00 | 0.00 | 55 | 993.1 |
| 20260903032119 | 82 | 225 | 12.0 | 15.0 | 0.00 | 0.00 | 0.00 | 55 | 993.1 |
| 20260903031619 | 82 | 0 | 10.0 | 12.0 | 0.00 | 0.00 | 0.00 | 55 | 993.1 |
| 20260903031120 | 82 | 0 | 11.0 | 14.0 | 0.00 | 0.00 | 0.00 | 55 | 993.0 |
| 20260903030619 | 82 | 0 | 11.0 | 15.0 | 0.00 | 0.00 | 0.00 | 55 | 993.1 |
| 20260903030119 | 83 | 0 | 11.0 | 13.0 | 0.00 | 0.00 | 0.00 | 55 | 993.2 |
| 20260903025636 | 83 | 0 | 12.0 | 14.0 | 0.00 | 0.00 | 0.00 | 55 | 993.4 |
| 20260903024620 | 83 | 0 | 11.0 | 14.0 | 0.00 | 0.00 | 0.00 | 55 | 993.6 |
| 20260903024121 | 83 | 0 | 12.0 | 14.0 | 0.00 | 0.00 | 0.00 | 55 | 993.7 |
| 20260903023616 | 83 | 0 | 11.0 | 14.0 | 0.00 | 0.00 | 0.00 | 55 | 993.7 |
| 20260903023220 | 83 | 0 | 10.0 | 13.0 | 0.00 | 0.00 | 0.00 | 55 | 993.7 |
| 20260903022616 | 83 | 0 | 9.0 | 11.0 | 0.00 | 0.00 | 0.00 | 55 | 993.8 |
| 20260903022119 | 83 | 0 | 7.0 | 11.0 | 0.00 | 0.00 | 0.00 | 55 | 993.8 |
| 20260903021618 | 83 | 203 | 9.0 | 13.0 | 0.00 | 0.00 | 0.00 | 55 | 993.8 |
| 20260903021116 | 84 | 0 | 7.0 | 10.0 | 0.00 | 0.00 | 0.00 | 55 | 993.9 |
| 20260903020616 | 84 | 0 | 10.0 | 14.0 | 0.00 | 0.00 | 0.00 | 55 | 993.9 |
| 20260903020118 | 84 | 203 | 8.0 | 10.0 | 0.00 | 0.00 | 0.00 | 54 | 994.0 |
| 20260903015638 | 84 | 0 | 7.0 | 11.0 | 0.00 | 0.00 | 0.00 | 54 | 994.0 |
| 20260903015121 | 84 | 0 | 6.0 | 11.0 | 0.00 | 0.00 | 0.00 | 54 | 994.0 |
| 20260903014620 | 84 | 0 | 5.0 | 8.0 | 0.00 | 0.00 | 0.00 | 54 | 994.1 |
| 20260903014121 | 84 | 0 | 7.0 | 9.0 | 0.00 | 0.00 | 0.00 | 54 | 994.1 |
| 20260903013701 | 84 | 0 | 7.0 | 10.0 | 0.00 | 0.00 | 0.00 | 54 | 994.1 |
| 20260903013121 | 84 | 0 | 6.0 | 12.0 | 0.00 | 0.00 | 0.00 | 54 | 994.1 |
| 20260903012620 | 84 | 0 | 5.0 | 9.0 | 0.00 | 0.00 | 0.00 | 54 | 994.0 |
| 20260903012120 | 85 | 0 | 7.0 | 9.0 | 0.00 | 0.00 | 0.00 | 54 | 994.1 |
| 20260903011621 | 85 | 0 | 6.0 | 8.0 | 0.00 | 0.00 | 0.00 | 54 | 994.1 |
| 20260903011120 | 85 | 203 | 5.0 | 6.0 | 0.00 | 0.00 | 0.00 | 53 | 994.1 |
| 20260903010618 | 85 | 0 | 4.0 | 6.0 | 0.00 | 0.00 | 0.00 | 53 | 994.0 |
| 20260903010121 | 85 | 0 | 4.0 | 7.0 | 0.00 | 0.00 | 0.00 | 53 | 993.9 |
| 20260903005618 | 85 | 0 | 4.0 | 5.0 | 0.00 | 0.00 | 0.00 | 53 | 993.9 |
| 20260903005120 | 85 | 0 | 3.0 | 4.0 | 0.00 | 0.00 | 0.00 | 53 | 993.9 |
| 20260903004619 | 85 | 0 | 5.0 | 8.0 | 0.00 | 0.00 | 0.00 | 53 | 994.0 |
| 20260903004120 | 86 | 0 | 7.0 | 9.0 | 0.00 | 0.00 | 0.00 | 52 | 994.0 |
| 20260903003620 | 86 | 0 | 5.0 | 6.0 | 0.00 | 0.00 | 0.00 | 52 | 993.9 |
| 20260903003118 | 86 | 225 | 5.0 | 5.0 | 0.00 | 0.00 | 0.00 | 52 | 993.8 |
| 20260903002619 | 87 | 225 | 5.0 | 6.0 | 0.00 | 0.00 | 0.00 | 51 | 993.9 |
| 20260903002118 | 87 | 225 | 5.0 | 6.0 | 0.00 | 0.00 | 0.00 | 50 | 993.9 |
| 20260903001618 | 87 | 225 | 5.0 | 6.0 | 0.00 | 0.00 | 0.00 | 50 | 993.9 |
| 20260903001123 | 87 | 225 | 4.0 | 6.0 | 0.00 | 0.00 | 0.00 | 50 | 994.0 |
| 20260903000621 | 88 | 225 | 4.0 | 4.0 | 0.00 | 0.00 | 0.00 | 49 | 994.0 |
| 20260903000138 | 88 | 225 | 3.0 | 5.0 | 0.00 | 0.00 | 0.00 | 49 | 993.8 |
| 20260902235618 | 88 | 225 | 3.0 | 4.0 | 0.00 | 0.00 | 0.00 | 49 | 993.9 |
| 20260902235118 | 88 | 225 | 4.0 | 5.0 | 0.00 | 0.00 | 0.00 | 49 | 993.9 |
| 20260902234621 | 89 | 225 | 5.0 | 6.0 | 0.00 | 0.00 | 0.00 | 48 | 993.8 |
| 20260902234259 | 89 | 225 | 5.0 | 7.0 | 0.00 | 0.00 | 0.00 | 48 | 993.8 |
| 20260902233618 | 89 | 248 | 7.0 | 9.0 | 0.00 | 0.00 | 0.00 | 47 | 993.7 |
| 20260902233121 | 89 | 225 | 7.0 | 10.0 | 0.00 | 0.00 | 0.00 | 47 | 993.7 |
| 20260902232621 | 89 | 248 | 6.0 | 9.0 | 0.00 | 0.00 | 0.00 | 47 | 993.6 |
| 20260902232140 | 90 | 248 | 5.0 | 6.0 | 0.00 | 0.00 | 0.00 | 47 | 993.7 |
| 20260902231620 | 90 | 225 | 5.0 | 7.0 | 0.00 | 0.00 | 0.00 | 47 | 993.6 |
| 20260902231118 | 90 | 248 | 8.0 | 10.0 | 0.00 | 0.00 | 0.00 | 47 | 993.6 |
| 20260902230618 | 90 | 225 | 8.0 | 11.0 | 0.00 | 0.00 | 0.00 | 46 | 993.6 |
| 20260902230118 | 91 | 225 | 8.0 | 10.0 | 0.00 | 0.00 | 0.00 | 46 | 993.5 |
| 20260902225702 | 91 | 248 | 8.0 | 11.0 | 0.00 | 0.00 | 0.00 | 46 | 993.5 |
| 20260902225120 | 92 | 0 | 9.0 | 12.0 | 0.00 | 0.00 | 0.00 | 45 | 993.5 |
| 20260902224620 | 92 | 225 | 7.0 | 10.0 | 0.00 | 0.00 | 0.00 | 45 | 993.5 |
| 20260902224118 | 92 | 225 | 8.0 | 11.0 | 0.00 | 0.00 | 0.00 | 45 | 993.6 |
| 20260902223620 | 92 | 225 | 7.0 | 9.0 | 0.00 | 0.00 | 0.00 | 45 | 993.6 |
| 20260902223120 | 92 | 225 | 8.0 | 10.0 | 0.00 | 0.00 | 0.00 | 44 | 993.7 |
| 20260902222618 | 92 | 225 | 7.0 | 10.0 | 0.00 | 0.00 | 0.00 | 44 | 993.6 |
| 20260902222118 | 92 | 248 | 7.0 | 9.0 | 0.00 | 0.00 | 0.00 | 44 | 993.6 |
| 20260902221641 | 93 | 225 | 7.0 | 10.0 | 0.00 | 0.00 | 0.00 | 45 | 993.7 |
| 20260902221119 | 93 | 225 | 11.0 | 13.0 | 0.00 | 0.00 | 0.00 | 44 | 993.8 |
| 20260902220618 | 93 | 0 | 9.0 | 13.0 | 0.00 | 0.00 | 0.00 | 44 | 993.8 |
| 20260902220118 | 94 | 225 | 9.0 | 13.0 | 0.00 | 0.00 | 0.00 | 43 | 993.8 |
| 20260902215638 | 94 | 248 | 6.0 | 7.0 | 0.00 | 0.00 | 0.00 | 42 | 993.6 |
| 20260902215118 | 94 | 248 | 6.0 | 8.0 | 0.00 | 0.00 | 0.00 | 41 | 993.7 |
| 20260902214621 | 94 | 248 | 5.0 | 7.0 | 0.00 | 0.00 | 0.00 | 42 | 993.8 |
| 20260902214201 | 94 | 225 | 6.0 | 9.0 | 0.00 | 0.00 | 0.00 | 43 | 993.8 |
| 20260902213620 | 94 | 225 | 9.0 | 11.0 | 0.00 | 0.00 | 0.00 | 42 | 993.8 |
| 20260902213120 | 94 | 225 | 7.0 | 11.0 | 0.00 | 0.00 | 0.00 | 42 | 993.8 |
| 20260902212619 | 94 | 248 | 9.0 | 12.0 | 0.00 | 0.00 | 0.00 | 42 | 993.9 |
| 20260902212119 | 93 | 248 | 9.0 | 11.0 | 0.00 | 0.00 | 0.00 | 43 | 993.9 |
| 20260902211642 | 93 | 248 | 5.0 | 7.0 | 0.00 | 0.00 | 0.00 | 43 | 993.9 |
| 20260902211118 | 93 | 0 | 13.0 | 15.0 | 0.00 | 0.00 | 0.00 | 44 | 994.0 |
| 20260902210640 | 93 | 0 | 9.0 | 12.0 | 0.00 | 0.00 | 0.00 | 44 | 994.0 |
| 20260902210118 | 93 | 0 | 9.0 | 13.0 | 0.00 | 0.00 | 0.00 | 44 | 994.0 |
| 20260902205618 | 93 | 0 | 10.0 | 14.0 | 0.00 | 0.00 | 0.00 | 43 | 994.1 |
| 20260902205118 | 93 | 225 | 5.0 | 7.0 | 0.00 | 0.00 | 0.00 | 43 | 994.2 |
| 20260902204620 | 93 | 0 | 11.0 | 12.0 | 0.00 | 0.00 | 0.00 | 44 | 994.2 |
| 20260902204118 | 93 | 0 | 13.0 | 17.0 | 0.00 | 0.00 | 0.00 | 44 | 994.2 |
| 20260902203619 | 93 | 0 | 11.0 | 18.0 | 0.00 | 0.00 | 0.00 | 44 | 994.3 |
| 20260902203138 | 93 | 0 | 9.0 | 10.0 | 0.00 | 0.00 | 0.00 | 45 | 994.4 |